Theta_e
336 338 345 349 350 352 351 351 352 355 354 350 348 348 346 350 352 355 358 359 358 356 357 354 356 357 355 356 357 355 352 346 350 347 346 350 354 353 353 354 353 353 354
334 337 340 345 350 350 352 353 353 354 353 351 351 349 349 348 350 352 354 356 356 357 356 356 355 356 353 356 356 355 351 350 353 344 345 338 343 349 351 352 353 354 354
330 335 339 342 346 349 351 352 354 355 355 355 353 351 350 349 347 348 350 353 356 358 358 358 357 357 356 352 355 355 354 352 353 352 352 341 335 342 347 351 351 353 352
327 333 338 341 341 349 352 353 353 354 353 356 352 351 346 343 346 347 349 351 355 356 357 359 358 357 356 356 354 355 353 356 349 351 350 351 347 341 335 346 349 353 353
325 328 335 340 346 348 351 352 353 354 354 354 354 352 350 348 348 348 354 356 356 357 357 358 358 357 356 356 356 355 354 352 349 353 355 353 352 351 343 337 340 346 350
324 329 333 339 344 349 350 351 353 353 355 354 354 354 353 352 348 351 350 351 353 354 357 358 358 359 358 356 356 356 357 357 354 354 357 352 344 345 345 341 341 341 345
323 327 333 332 338 343 347 350 353 353 354 351 353 355 355 355 353 352 350 352 350 351 357 358 357 357 358 355 355 359 357 355 357 356 349 352 356 358 353 346 340 340 342
324 325 330 334 334 337 337 340 335 341 350 352 353 355 356 351 351 354 351 351 351 352 358 358 357 358 358 357 355 354 358 358 359 355 356 349 354 356 354 344 342 337 338
326 327 330 334 335 337 334 334 337 338 335 337 347 350 350 353 353 352 355 353 357 354 356 356 357 358 358 357 359 357 354 358 358 358 358 358 357 352 356 353 353 347 334
328 328 331 335 337 339 338 337 337 339 338 338 340 338 344 347 356 357 355 354 356 357 356 355 356 357 357 357 358 359 359 355 353 353 353 356 358 356 355 350 349 349 345
327 327 328 333 337 339 341 342 342 341 340 339 340 342 342 345 351 349 354 353 356 357 355 357 356 355 355 356 355 356 355 352 354 353 352 351 354 357 352 350 348 346 346
328 329 329 329 333 336 339 340 343 343 344 344 342 340 342 343 346 351 351 351 353 356 354 354 356 355 355 356 354 352 352 352 351 352 352 351 351 353 355 352 345 345 345
326 327 329 330 332 336 338 340 342 341 344 341 342 344 344 344 343 347 349 350 353 354 353 354 355 355 357 355 355 354 353 353 353 354 352 352 352 350 350 351 348 345 346
324 325 326 331 335 337 338 339 342 342 343 339 341 341 342 342 341 341 340 342 344 346 349 354 353 354 356 357 356 353 355 354 354 354 353 353 352 352 351 350 350 349 345
321 322 323 330 334 334 337 339 340 341 340 336 339 340 342 339 339 340 340 340 340 339 344 345 348 350 350 349 351 352 351 351 351 352 353 353 350 343 347 349 350 350 343
321 323 324 330 331 330 333 335 335 336 337 336 339 339 338 336 335 336 337 337 339 338 341 342 343 344 347 332 331 344 352 352 351 350 350 352 344 343 334 336 337 346 347
320 323 324 326 329 329 330 331 331 335 336 334 336 338 337 336 335 336 337 336 337 339 338 340 340 342 345 328 326 329 347 345 343 344 344 349 348 343 350 334 331 333 333
321 324 324 325 326 327 329 329 329 330 331 331 333 333 334 334 335 334 333 333 334 335 335 337 337 334 336 324 322 326 340 343 340 341 342 344 348 349 349 351 349 348 349
320 321 324 323 323 323 326 325 324 326 327 327 331 334 334 333 334 337 338 337 335 334 333 335 339 338 337 321 318 325 339 337 338 340 341 342 344 331 323 346 347 348 349
321 321 322 322 321 322 324 323 322 322 323 328 329 333 336 335 335 335 338 338 337 338 339 339 339 332 338 322 317 321 339 336 337 337 339 327 335 322 319 338 343 345 345
321 323 324 320 321 322 323 322 322 321 324 328 331 332 334 336 338 339 341 339 337 337 338 338 337 336 336 335 312 313 342 339 334 334 334 338 317 314 311 314 339 341 338
321 322 323 323 323 324 323 322 321 324 326 327 326 327 330 332 333 338 339 340 340 339 338 331 330 328 326 315 314 314 318 323 336 334 336 331 309 307 308 312 315 312 315
320 323 323 324 323 324 323 321 322 325 326 326 326 327 327 327 333 334 334 333 335 334 332 328 329 330 329 323 310 309 311 314 329 330 319 311 307 306 312 309 309 310 328
321 324 323 323 323 324 323 321 323 324 325 324 324 325 326 326 326 327 331 329 328 328 328 329 329 329 328 325 325 324 322 316 322 318 321 316 313 309 315 319 322 327 328
324 326 324 323 324 325 324 322 323 322 322 322 323 323 323 325 325 324 328 331 332 325 328 328 328 327 326 323 309 314 325 324 313 315 323 323 322 324 325 325 326 328 331
321 324 325 323 323 324 324 323 321 321 322 320 320 320 321 322 323 323 325 307 306 302 301 301 314 321 304 299 298 298 298 298 299 321 323 321 320 321 320 320 321 322 323
Wind_Speed
8 7 14 18 18 19 18 18 19 18 14 13 12 11 11 10 10 10 13 12 11 13 12 10 10 9 9 10 10 8 10 8 6 6 8 8 10 10 9 7 8 10 10
13 12 9 14 20 20 21 20 19 19 17 13 12 10 11 11 11 10 11 13 13 13 12 12 11 11 9 11 11 11 8 8 7 6 5 7 8 9 10 9 9 12 10
15 16 15 14 19 20 19 19 19 19 18 17 12 10 9 9 10 11 11 13 15 14 14 14 11 11 10 10 11 12 13 8 7 10 4 3 5 4 5 9 10 12 10
15 15 18 19 10 16 16 18 20 19 18 18 16 19 14 14 13 13 12 12 15 16 15 15 13 12 10 11 11 11 12 10 10 5 8 7 3 4 5 3 4 5 7
16 16 16 15 9 10 14 16 18 18 18 19 16 15 16 13 11 11 14 14 14 15 15 15 14 13 10 12 13 12 13 10 10 7 4 9 7 8 7 10 8 7 6
15 15 13 13 11 2 9 12 15 17 18 19 19 18 16 13 12 13 12 12 12 12 16 15 14 14 12 13 12 14 14 11 10 8 8 9 8 8 8 9 11 10 9
12 13 15 12 10 8 5 9 12 15 17 17 19 19 17 17 16 14 12 13 12 12 14 16 14 12 13 12 10 11 12 12 11 11 11 10 8 7 7 9 11 9 7
11 12 11 10 8 6 5 4 8 7 7 14 16 15 16 10 12 14 12 12 12 12 14 16 16 16 15 14 12 10 10 11 10 13 12 12 8 8 8 10 8 10 10
11 12 11 10 9 7 3 2 2 2 1 4 5 14 14 16 14 14 14 13 12 11 14 16 17 17 16 15 13 10 12 11 11 12 12 10 9 9 8 8 8 9 11
11 10 10 9 8 6 5 6 6 7 6 5 5 3 2 11 14 15 17 15 14 15 14 16 17 17 16 15 14 11 12 11 10 9 11 11 8 9 7 8 8 9 9
11 10 10 10 8 6 6 7 8 10 10 11 10 11 11 12 12 10 14 15 16 16 16 17 16 17 16 16 15 13 13 13 14 12 13 13 12 7 9 8 7 8 7
11 11 11 11 8 8 8 10 9 11 12 12 13 13 14 14 14 15 16 14 14 14 16 15 17 17 17 16 16 15 14 14 16 15 14 14 10 12 10 8 9 8 7
13 13 13 10 10 9 10 11 10 10 10 8 14 13 14 14 14 12 12 13 15 17 16 15 16 16 16 16 16 15 15 14 16 15 15 14 13 12 9 10 9 8 6
14 13 12 12 10 9 10 12 10 9 9 8 13 13 12 10 11 8 8 10 11 12 15 16 15 14 12 14 13 13 12 12 13 14 14 13 13 13 12 11 12 9 7
14 13 13 13 9 9 10 11 7 8 7 9 14 12 8 6 5 6 8 10 8 5 10 9 8 9 9 8 12 12 11 13 13 12 14 13 13 13 12 9 11 9 8
18 16 14 13 7 7 8 8 7 7 5 9 12 10 7 6 4 2 5 9 9 9 10 10 10 8 5 5 6 5 11 12 13 12 11 12 13 12 13 13 9 10 11
16 14 11 9 5 5 5 6 6 5 6 5 2 5 6 9 4 6 7 5 4 4 6 7 8 9 9 10 9 5 2 6 7 6 8 8 9 13 12 13 11 11 14
14 10 8 3 5 5 5 5 6 6 8 9 6 3 3 5 4 4 6 6 5 5 4 6 4 2 1 5 7 9 10 9 8 6 7 7 9 11 10 11 11 14 14
12 12 10 7 6 6 5 8 6 6 5 6 3 3 1 4 3 5 6 5 4 5 5 6 8 6 7 11 10 11 9 8 8 6 4 4 7 3 6 7 12 13 12
7 6 8 7 5 7 5 9 6 6 6 5 6 6 5 3 2 6 6 4 4 4 4 6 5 7 8 11 16 13 6 4 2 4 7 13 6 3 6 4 8 10 12
7 6 5 5 4 5 5 9 7 7 5 4 6 6 6 6 5 2 2 2 0 2 5 5 5 5 2 3 7 9 7 7 5 3 4 5 8 7 7 10 4 9 5
5 7 6 4 5 6 6 7 7 5 5 5 6 7 8 6 5 5 5 5 4 5 6 6 6 6 7 11 7 5 2 2 5 5 4 4 4 5 7 8 9 8 5
6 4 9 3 5 6 7 6 6 6 5 5 6 5 6 5 5 6 6 6 5 6 6 5 5 6 6 6 9 10 8 11 3 4 3 2 3 2 3 7 8 6 3
9 6 7 5 4 6 7 6 9 8 6 7 6 5 5 4 4 3 3 5 5 5 5 5 4 4 5 5 4 3 3 4 3 1 2 4 3 4 4 4 3 3 5
10 8 3 5 3 4 5 6 9 10 8 8 6 5 3 3 3 4 2 3 4 4 5 5 4 4 4 4 5 5 3 3 4 3 1 2 2 2 2 2 3 5 6
9 4 3 4 3 3 3 5 7 8 8 7 6 5 5 4 4 4 4 8 8 9 9 9 3 4 7 8 5 3 3 1 2 1 2 1 1 2 3 3 4 4 6
Wind_Direction
343 297 234 220 208 202 194 193 187 186 183 188 187 195 203 207 213 214 213 214 216 211 209 210 203 201 204 210 205 211 213 210 217 237 239 249 244 247 242 240 245 243 240
2 357 331 247 217 201 197 192 191 185 187 187 198 196 199 209 215 215 215 211 211 211 215 218 210 207 206 205 206 210 215 224 205 228 245 254 235 232 240 240 244 245 247
355 352 344 310 230 211 197 196 193 189 191 189 182 192 190 203 204 213 216 211 211 214 217 217 222 213 217 211 209 209 216 221 195 215 226 208 239 272 219 231 245 254 253
359 360 356 353 228 209 202 198 192 194 195 190 187 190 197 200 203 203 206 211 214 209 211 216 217 219 216 221 218 216 223 226 226 194 227 240 252 233 264 211 239 243 247
352 358 3 6 1 209 205 201 198 197 193 192 199 197 202 202 196 202 198 204 202 213 211 213 212 216 221 225 224 218 220 219 231 219 206 227 221 242 258 272 264 257 252
350 356 360 9 22 324 210 208 205 205 200 198 199 201 209 210 204 197 200 203 203 204 211 213 215 218 217 222 221 220 226 221 231 227 219 228 230 231 237 255 265 265 280
355 354 357 1 11 26 351 227 217 220 213 204 206 204 206 202 203 205 205 203 206 206 205 207 210 217 218 224 225 216 225 223 223 221 235 240 235 234 238 249 267 268 258
357 353 353 358 351 9 21 16 49 10 268 212 212 210 207 205 212 207 208 213 213 212 206 201 205 212 216 220 220 230 220 226 223 229 235 245 235 228 227 245 246 265 264
351 346 342 349 349 334 313 276 270 238 44 30 272 205 197 204 205 212 209 207 213 219 214 213 208 203 210 218 222 222 230 229 227 231 234 233 240 242 233 232 236 245 270
343 338 338 336 337 337 319 299 268 249 243 227 208 244 255 215 215 203 206 210 206 215 216 216 220 210 201 208 228 226 229 228 240 231 226 228 225 233 232 236 241 231 251
336 329 326 330 327 317 292 265 246 251 241 231 235 222 213 217 210 218 219 223 207 199 208 215 213 220 213 203 209 222 223 219 235 224 234 235 233 218 225 232 220 222 229
328 322 311 309 310 307 290 272 259 253 248 249 232 228 242 228 224 210 200 203 221 222 214 213 214 210 218 206 202 212 226 223 229 229 228 230 228 229 225 215 217 221 213
322 319 316 310 301 301 297 287 261 264 264 241 257 249 232 220 218 215 208 211 207 204 206 210 224 207 211 208 199 201 211 221 227 223 218 221 219 222 214 222 214 215 206
313 313 311 310 292 297 299 296 266 263 283 243 235 235 235 216 192 208 239 241 237 238 232 228 215 211 217 214 202 204 200 220 226 225 217 214 208 218 213 218 219 216 212
316 315 309 302 291 300 311 300 294 292 291 231 227 227 214 196 196 177 212 228 222 238 231 223 221 210 182 210 204 199 190 212 224 220 220 210 207 212 213 214 215 211 215
318 314 304 299 299 311 309 309 328 330 317 197 209 222 258 263 250 299 237 219 202 200 221 211 204 189 183 162 217 194 194 215 227 213 213 217 192 211 205 210 226 209 208
306 303 311 305 342 337 345 8 12 2 57 77 155 236 266 297 3 283 262 254 236 206 196 213 203 202 205 177 161 150 196 235 218 224 209 203 214 213 211 207 224 218 218
332 322 315 358 6 353 28 4 21 11 47 57 27 15 307 285 287 296 308 293 315 300 266 249 254 218 114 210 202 186 201 231 222 204 230 213 228 208 213 221 220 223 223
13 4 347 28 6 358 41 57 30 10 51 66 72 67 353 284 296 279 273 265 230 215 235 258 240 213 218 214 220 194 206 210 199 165 154 222 246 284 229 250 255 243 237
14 336 347 16 13 353 3 72 60 31 12 53 53 60 58 28 144 207 228 242 253 251 238 233 224 211 222 216 214 203 197 192 210 175 183 211 215 224 197 233 282 256 257
332 327 16 13 13 347 11 52 47 44 1 27 61 55 69 78 64 132 216 181 180 51 64 67 41 30 310 239 197 193 191 174 168 194 217 226 171 199 185 199 243 272 339
340 326 331 5 6 26 32 51 33 18 50 50 52 47 43 41 53 77 66 50 36 53 64 58 52 51 43 36 56 57 90 195 155 170 180 180 51 110 146 169 200 236 278
282 287 292 13 15 14 22 23 14 14 19 47 51 57 70 54 34 53 70 94 88 85 95 78 64 67 76 75 65 68 45 27 24 22 30 341 332 328 212 202 193 191 221
247 266 319 352 14 347 358 359 6 3 15 28 37 51 67 57 48 65 82 87 84 84 89 100 111 104 114 119 114 116 108 97 103 260 275 324 323 278 285 307 257 213 214
248 248 240 297 354 354 345 354 358 351 8 10 11 33 56 61 87 74 41 94 83 49 91 90 94 105 108 87 58 27 50 35 46 283 111 30 27 324 305 288 276 273 261
286 246 233 280 324 330 354 9 358 356 358 350 3 10 358 15 25 35 81 49 51 41 29 21 23 101 67 130 130 90 68 23 264 219 42 62 349 303 308 299 287 282 273